Volver al catálogo

STARLINK-11112

ActivoComunicacionesVLEO
NORAD 60115·PAYLOAD·🇺🇸 United States

Lanzado Jun 24, 2024 desde Vandenberg Space Force Base

Loading…

Próximos Pases (próximas 24 horas)

TLE

ActualizadoSource: CelesTrak SupGP

Época: Sep 14, 2026, 21:26 UTC

1 60115C 24118C   26257.89354167  .00015025  00000+0  12366-3 0  2574
2 60115  53.1569   8.7576 0001117  73.4386  55.0203 15.69722481    19

Sigue STARLINK-11112 en tiempo real con AllMySat

Download on the App Store